Regional Weather Roundup
Issued by NWS

Home | Current Version | Previous Version | Text Only | Print | Product List | Glossary Off
Versions: 1 2 3 4 5 6 7 8 9 10 11 12 13 14 15 16 17 18 19 20 21 22 23 24 25 26 27 28 29 30 31 32 33 34 35 36 37 38 39 40 41 42 43 44 45 46 47 48 49 50

000
ASUS45 KPSR 250210
RWRAZ

ARIZONA REGIONAL HOURLY WEATHER ROUNDUP
NATIONAL WEATHER SERVICE PHOENIX AZ
700 PM MST FRI OCT 24 2014

NOTE: FAIR INDICATES FEW OR NO CLOUDS BELOW 12,000 FEET WITH NO
SIGNIFICANT WEATHER AND/OR OBSTRUCTIONS TO VISIBILITY.

AZZ001>003-036-250300-
NORTHWEST ARIZONA

CITY           SKY/WX    TMP DP  RH WIND       PRES   REMARKS
BULLHEAD CITY  CLEAR     84  37  18 SE5       29.93R
KINGMAN        CLEAR     63  38  39 S10       30.11R
$$

AZZ004>008-015-016-018-250300-
NORTH CENTRAL ARIZONA

CITY           SKY/WX    TMP DP  RH WIND       PRES   REMARKS
GRAND CANYON   CLEAR     50  23  34 CALM      30.33R
PRESCOTT       CLEAR     66  38  35 SW5       30.23R
FLAGSTAFF      CLEAR     50  29  44 CALM      30.36R
PAYSON         CLEAR     66  43  42 S5        30.26R
PAGE           CLEAR     67  36  31 S5        30.16R
$$

AZZ009>014-017-250300-
NORTHEAST ARIZONA

CITY           SKY/WX    TMP DP  RH WIND       PRES   REMARKS
WINSLOW        CLEAR     63  34  33 CALM      30.20R
SAINT JOHNS    CLEAR     61  40  45 CALM      30.26R
WINDOW ROCK    CLEAR     62  26  25 CALM      30.35R
SHOW LOW       CLEAR     57  36  44 S8        30.34R
$$

AZZ023-250300-
GREATER PHOENIX AREA

CITY           SKY/WX    TMP DP  RH WIND       PRES   REMARKS
PHOENIX        CLEAR     88  48  25 CALM      29.94R
BUCKEYE          N/A     81  46  30 NE6       29.96R
GLENDALE       CLEAR     88  48  25 CALM      29.96R
LUKE AFB       CLEAR    N/A N/A N/A NW6         N/A
DEER VALLEY    CLEAR     84  45  25 CALM      29.97R
SCOTTSDALE     CLEAR     85  48  27 CALM      29.99R
MESA-FALCON    CLEAR     86  46  25 CALM      29.96R
MESA-GATEWAY   CLEAR     84  48  28 CALM      29.99R
CHANDLER       CLEAR     82  48  30 CALM      29.96R
$$

AZZ027-028-250300-
SOUTHWEST MARICOPA COUNTY AND PINAL COUNTY

CITY           SKY/WX    TMP DP  RH WIND       PRES   REMARKS
CASA GRANDE    CLEAR     82  46  28 N6        29.98R
$$

AZZ503-504-507>509-250300-
SOUTHEAST ARIZONA

CITY           SKY/WX    TMP DP  RH WIND       PRES   REMARKS
TUCSON         CLEAR     83  46  27 NW3       30.07R
DAVIS-MONTHAN  CLEAR     80  46  29 NW8       30.06R HAZE
RYAN FIELD       N/A     81  48  32 W3        30.06R
NOGALES        CLEAR     68  48  48 E6        30.16R
SIERRA VISTA   CLEAR     72  45  37 SW10      30.21R
DOUGLAS        CLEAR     69  43  38 E7        30.17R
SAFFORD        CLEAR     74  48  39 CALM      30.09R
$$

AZZ020-021-025-026-031-250300-
SOUTHWEST ARIZONA

CITY           SKY/WX    TMP DP  RH WIND       PRES   REMARKS
YUMA           CLEAR     88  42  20 SW7       29.88R
$$

CAZ031-033-041-043-047-048-061-250300-
SOUTHERN CALIFORNIA

CITY           SKY/WX    TMP DP  RH WIND       PRES   REMARKS
DOWNTOWN L.A.  CLEAR     74  58  57 CALM      29.93R
L.A. AIRPORT   CLEAR     71  64  78 W7        29.94R
SAN DIEGO      CLEAR     77  56  48 CALM      29.94S
BURBANK        CLEAR     79  45  29 S3        29.94R
ONTARIO        CLEAR     80  28  15 W9        29.96R
RIVERSIDE      CLEAR     81  28  14 VRB5      29.95R
PALM SPRINGS   CLEAR     86  49  27 NE3       29.92R
EL CENTRO NAS  CLEAR     84  44  24 N3        29.86R
IMPERIAL       CLEAR     83  49  30 CALM      29.86R
BLYTHE         CLEAR     87  46  24 SE5       29.89R
NEEDLES        CLEAR     85  37  18 SW7       29.93R
$$

NVZ020-UTZ003-250300-
SOUTHERN NEVADA-UTAH

CITY           SKY/WX    TMP DP  RH WIND       PRES   REMARKS
LAS VEGAS      CLEAR     83  38  20 SW6       29.96R
SALT LAKE CITY CLEAR     58  40  51 W3        30.08S
$$

NMZ009-TXZ055-250300-
NEW MEXICO-WEST TEXAS

CITY           SKY/WX    TMP DP  RH WIND       PRES   REMARKS
ALBUQUERQUE    CLEAR     67  34  29 S6        30.25R
EL PASO        CLEAR     71  49  45 E6        30.18R
$$


........................KEY........................
SKY/WX - SKY CONDITION/WEATHER
TMP    - TEMPERATURE IN FAHRENHEIT
DP     - DEW POINT IN FAHRENHEIT
RH     - RELATIVE HUMIDITY IN PERCENT
WIND   - DIRECTION AND SPEED IN MILES PER HOUR (MPH)
VRB    - VARIABLE WIND DIRECTION
PRES   - MEAN SEA LEVEL PRESSURE IN INCHES OF MERCURY
         F - FALLING PRESSURE   R - RISING PRESSURE
         S - STEADY PRESSURE
VSB    - VISIBILITY IN MILES
HX     - HEAT INDEX IN FAHRENHEIT
WCI    - WIND CHILL INDEX IN FAHRENHEIT
TC     - TEMPERATURE IN CELSIUS WHICH IS ALSO KNOWN AS
         TEMPERATURE IN CENTIGRADE
AFB    - AIR FORCE BASE
         LUKE AFB IS LUKE AIR FORCE BASE
         DAVIS-MONTHAN IS DAVIS-MONTHAN AIR FORCE BASE
NAS    - NAVAL AIR STATION
         EL CENTRO NAS IS EL CENTRO NAVAL AIR STATION
N/A    - NOT AVAILABLE



USA.gov is the U.S. government's official web portal to all federal, state and local government web resources and services.